Location: Riverside Cemetery
(38.3047°N, 99.7773°W)
Time: 11:04:30
(UTC+00:00)

Cosmos 1782 Rocket - Pass Details

Date: 19 September 2020
Orbit: 607 x 632 km, 82.5° (Epoch: 25 October)

Event Time Altitude Azimuth Distance (km) Brightness Sun altitude
Rises 01:08:17 0° 175° (S) 2,873 6.9 -6.1°
Reaches altitude 10° 01:10:31 10° 171° (S) 1,976 6.0 -6.5°
Maximum altitude 01:14:47 55° 94° (E) 753 3.7 -7.3°
Drops below altitude 10° 01:19:07 10° 17° (NNE) 2,006 6.1 -8.2°
Sets 01:21:24 0° 13° (NNE) 2,921 7.0 -8.6°
